[[{"header":{"parameterUnit":"m.s-1","parameterCategory":1,"la1":30.2991,"la2":30.254,"lo1":-89.0895,"lo2":-89.0444,"dy":0.0017,"dx":0.0017,"nx":28,"ny":28,"refTime":"2025-03-30T21:00:00:Z","depth":0,"parameterNumber":2,"parameterNumberName":"U-component_of_WINDS"},"data":[0,0,0,0,0,0,0,0,0,0,0,0,0,0,0,0,0,0,0,0,0,0,0,0,0,0,0,0,0,0,0,0,0,0,0,0,0,0,0,0,0,0,0,0,0,0,0,0,0,0,0,0,0,0,0,0,0,0,-2.6494,-2.6495,0,-2.6596,-2.6597,-2.6598,-2.6643,-2.6643,-2.6643,-2.6643,-2.6747,-2.675,-2.6753,0,0,0,0,0,0,0,0,0,0,0,0,0,-2.6339,-2.6342,-2.6494,-2.6496,-2.6497,-2.6595,-2.6597,-2.6598,-2.6643,-2.6643,-2.6643,-2.6643,-2.6746,-2.675,-2.6753,0,0,0,0,0,0,0,0,0,0,0,0,0,-2.642,-2.6343,-2.6494,-2.6531,-2.6536,-2.6595,-2.6597,-2.6599,-2.6643,-2.6643,-2.6643,-2.6643,-2.6745,-2.6749,-2.6754,-2.6784,0,0,-2.6767,-2.6769,0,0,0,0,0,0,0,0,-2.6416,-2.6426,-2.6525,-2.6529,-2.6534,-2.6607,-2.658,-2.6661,-2.6644,-2.6603,-2.6643,-2.6643,-2.6701,-2.6709,-2.6728,-2.6789,-2.6793,-2.6767,-2.677,-2.6772,-2.6773,0,0,0,0,0,0,0,-2.641,-2.6422,-2.6534,-2.6526,-2.6532,-2.6543,-2.6554,-2.6596,-2.6651,-2.6606,-2.661,-2.6621,-2.6703,-2.6724,-2.6731,-2.6795,-2.6767,-2.6771,-2.6774,-2.6775,-2.6884,-2.6885,0,0,0,0,0,0,-2.6398,-2.6417,-2.6531,-2.6537,-2.6473,-2.6546,-2.6558,-2.6583,-2.6651,-2.6661,-2.6621,-2.6623,-2.6716,-2.6726,-2.6735,-2.6774,-2.6772,-2.6776,-2.6778,-2.6884,-2.6884,-2.6885,0,0,0,0,0,0,-2.6395,-2.6408,-2.6527,-2.6478,-2.6494,-2.6548,-2.6576,-2.6586,-2.6606,-2.6662,-2.6672,-2.6632,-2.6717,-2.6729,-2.6771,-2.6778,-2.6778,-2.6782,-2.6884,-2.6884,-2.6884,-2.6853,0,0,0,0,0,0,-2.639,-2.6406,-2.6419,-2.6478,-2.6497,-2.6562,-2.6577,-2.6588,-2.6614,-2.6617,-2.6675,-2.6685,-2.6717,-2.6764,-2.6775,-2.6784,-2.6785,-2.6883,-2.6884,-2.6884,-2.6854,-2.6852,-2.6851,0,0,0,0,0,-2.6384,-2.6406,-2.6419,-2.6433,-2.6513,-2.6562,-2.6573,-2.661,-2.6614,-2.6627,-2.6662,-2.6683,-2.6775,-2.6768,-2.6781,-2.6791,-2.6883,-2.6884,-2.6884,-2.6854,-2.6853,-2.6851,0,0,0,0,0,0,-2.6347,-2.6415,-2.643,-2.6472,-2.6511,-2.657,-2.6587,-2.6607,-2.6646,-2.6647,-2.6692,-2.6705,-2.6743,-2.6772,-2.6762,-2.6824,-2.6831,-2.6834,-2.6804,-2.6803,-2.6801,-2.6794,-2.6789,0,0,0,0,0,-2.6344,-2.6378,-2.6435,-2.6466,-2.6485,-2.6532,-2.6555,-2.658,-2.6623,-2.664,-2.6679,-2.6719,-2.6757,-2.6781,-2.682,-2.6858,-2.6871,-2.6871,-2.687,-2.6868,-2.6871,-2.6892,-2.6893,-2.6887,-2.6887,-2.6887,0,0,-2.6337,-2.6378,-2.6397,-2.646,-2.6493,-2.6527,-2.6546,-2.6582,-2.6608,-2.6645,-2.6687,-2.6717,-2.6765,-2.6805,-2.6825,-2.683,-2.6875,-2.6869,-2.6868,-2.6871,-2.6893,-2.6893,-2.6894,-2.6887,-2.6887,-2.6887,0,0,-2.6343,-2.6377,-2.6407,-2.6439,-2.6489,-2.652,-2.6527,-2.6583,-2.6604,-2.6647,-2.6675,-2.6706,-2.6771,-2.6804,-2.6829,-2.6845,-2.6865,-2.6856,-2.685,-2.687,-2.6871,-2.6871,-2.6877,-2.6878,-2.6858,-2.6858,-2.6858,0,-2.6328,-2.6381,-2.6419,-2.6453,-2.6479,-2.6514,-2.6544,-2.6574,-2.6633,-2.665,-2.6655,-2.6737,-2.6772,-2.6819,-2.6823,-2.6842,-2.6851,-2.685,-2.6867,-2.6868,-2.687,-2.6875,-2.6877,-2.6857,-2.6857,-2.6857,-2.6857,0,-2.6361,-2.6397,-2.6414,-2.647,-2.6499,-2.653,-2.6573,-2.6597,-2.6618,-2.6649,-2.6691,-2.6734,-2.6781,-2.6794,-2.6817,-2.6845,-2.6847,-2.6859,-2.6867,-2.6868,-2.6874,-2.6877,-2.6855,-2.6855,-2.6855,-2.6856,0,0,-2.6347,-2.6422,-2.6428,-2.6454,-2.651,-2.6539,-2.6571,-2.6617,-2.6636,-2.6676,-2.6704,-2.6757,-2.6768,-2.6797,-2.6823,-2.684,-2.685,-2.6851,-2.6852,-2.6849,-2.6883,-2.6874,-2.6876,-2.6863,-2.6864,-2.6864,-2.6879,0,-2.636,-2.642,-2.6454,-2.65,-2.6533,-2.6566,-2.6594,-2.6631,-2.666,-2.6692,-2.6724,-2.6761,-2.6773,-2.6791,-2.681,-2.6844,-2.6857,-2.6844,-2.689,-2.6891,-2.6877,-2.6879,-2.6869,-2.6882,-2.6882,-2.6882,-2.6883,0,-2.6384,-2.6422,-2.647,-2.6522,-2.6537,-2.6562,-2.6606,-2.6636,-2.6679,-2.6699,-2.6729,-2.6755,-2.679,-2.6795,-2.6844,-2.6834,-2.6855,-2.6875,-2.6876,-2.6882,-2.6887,-2.6885,-2.6887,-2.6888,-2.6887,-2.6886,-2.6886,0,-2.6368,-2.6432,-2.6469,-2.6489,-2.6551,-2.6567,-2.6593,-2.6636,-2.6661,-2.6699,-2.6715,-2.6757,-2.678,-2.6812,-2.6848,-2.6848,-2.6893,-2.6902,-2.6911,-2.691,-2.6919,-2.6918,-2.6924,-2.6932,-2.6932,-2.6932,-2.6932,0,-2.6379,-2.6408,-2.6462,-2.6485,-2.6517,-2.6556,-2.6588,-2.6616,-2.6654,-2.6683,-2.6713,-2.674,-2.6786,-2.6818,-2.6846,-2.6882,-2.6892,-2.6909,-2.6917,-2.6907,-2.6905,-2.6921,-2.6922,-2.6933,-2.6933,-2.6932,-2.6932,0,-2.6368,-2.6406,-2.6448,-2.6502,-2.6516,-2.6538,-2.6584,-2.6607,-2.6637,-2.6673,-2.6683,-2.673,-2.6769,-2.6808,-2.6861,-2.688,-2.6916,-2.6926,-2.6901,-2.6905,-2.6912,-2.6911,-2.6929,-2.6934,-2.6938,-2.6938,-2.6938,0,-2.6373,-2.6395,-2.6451,-2.6472,-2.6497,-2.6531,-2.6556,-2.6595,-2.662,-2.667,-2.6687,-2.6728,-2.6763,-2.6824,-2.6863,-2.6903,-2.6914,-2.6918,-2.6921,-2.691,-2.6915,-2.6913,-2.6915,-2.6917,-2.6917,-2.6916,-2.6916,0,-2.6377,-2.6394,-2.6429,-2.647,-2.6498,-2.6533,-2.6568,-2.6583,-2.6629,-2.6655,-2.6695,-2.6722,-2.6776,-2.6816,-2.6861,-2.6888,-2.691,-2.6915,-2.6919,-2.691,-2.6894,-2.6903,-2.6898,-2.6914,-2.6915,-2.6915,-2.6915,-2.6915,-2.6374,-2.6395,-2.6437,-2.6474,-2.6505,-2.6537,-2.6561,-2.6593,-2.6627,-2.6673,-2.6694,-2.6734,-2.6775,-2.6837,-2.6864,-2.6896,-2.6902,-2.6908,-2.691,-2.6911,-2.6908,-2.6889,-2.6904,-2.6905,-2.6905,-2.6905,-2.6905,0,-2.6379,-2.6408,-2.6442,-2.6489,-2.6518,-2.6535,-2.6575,-2.6598,-2.6633,-2.667,-2.6703,-2.6748,-2.6788,-2.6829,-2.6871,-2.6888,-2.6899,-2.6898,-2.6897,-2.6903,-2.6901,-2.6893,-2.6888,-2.6888,-2.6888,-2.6888,-2.6888,-2.6888,-2.6386,-2.6422,-2.6444,-2.6495,-2.6523,-2.6562,-2.6583,-2.6613,-2.6642,-2.6691,-2.6724,-2.675,-2.6789,-2.6833,-2.687,-2.6881,-2.6895,-2.6891,-2.6905,-2.6902,-2.6903,-2.6904,-2.6897,-2.6893,-2.6893,-2.6904,-2.6904,-2.6904]},{"header":{"parameterUnit":"m.s-1","parameterCategory":1,"la1":30.2991,"la2":30.254,"lo1":-89.0895,"lo2":-89.0444,"dy":0.0017,"dx":0.0017,"nx":28,"ny":28,"refTime":"2025-03-30T21:00:00:Z","depth":0,"parameterNumber":3,"parameterNumberName":"V-component_of_WINDS"},"data":[0,0,0,0,0,0,0,0,0,0,0,0,0,0,0,0,0,0,0,0,0,0,0,0,0,0,0,0,0,0,0,0,0,0,0,0,0,0,0,0,0,0,0,0,0,0,0,0,0,0,0,0,0,0,0,0,0,0,4.2767,4.2767,0,4.2738,4.2738,4.2738,4.2695,4.2694,4.2693,4.2693,4.2662,4.2662,4.2662,0,0,0,0,0,0,0,0,0,0,0,0,0,4.2785,4.2785,4.2767,4.2767,4.2767,4.2738,4.2738,4.2738,4.2695,4.2694,4.2693,4.2692,4.2662,4.2662,4.2662,0,0,0,0,0,0,0,0,0,0,0,0,0,4.2769,4.2785,4.2767,4.2742,4.2739,4.2738,4.2738,4.2738,4.2695,4.2694,4.2693,4.2692,4.2662,4.2662,4.2662,4.2683,0,0,4.2661,4.2661,0,0,0,0,0,0,0,0,4.277,4.2768,4.2746,4.2744,4.2741,4.2719,4.2733,4.2719,4.2696,4.2712,4.2693,4.2691,4.2682,4.268,4.2677,4.2681,4.268,4.2661,4.2661,4.2661,4.2661,0,0,0,0,0,0,0,4.2771,4.2769,4.2756,4.2746,4.2743,4.2732,4.2728,4.273,4.2703,4.271,4.2707,4.2705,4.268,4.2677,4.2676,4.268,4.2661,4.2661,4.2661,4.2661,4.2701,4.2703,0,0,0,0,0,0,4.2776,4.2771,4.2757,4.2755,4.2753,4.2732,4.2729,4.2727,4.2703,4.2699,4.2706,4.2703,4.2678,4.2676,4.2675,4.2699,4.2661,4.2661,4.2661,4.27,4.2702,4.2703,0,0,0,0,0,0,4.2777,4.2775,4.2758,4.2762,4.2759,4.2733,4.2732,4.2727,4.2724,4.27,4.2695,4.2708,4.2677,4.2675,4.2682,4.2697,4.2661,4.266,4.2699,4.2701,4.2702,4.2747,0,0,0,0,0,0,4.2777,4.2776,4.2783,4.2762,4.2759,4.2765,4.2733,4.2727,4.2724,4.272,4.27,4.2696,4.2676,4.2682,4.2681,4.2696,4.266,4.2697,4.27,4.2702,4.2744,4.275,4.2755,0,0,0,0,0,4.2778,4.2797,4.2784,4.2783,4.2768,4.2766,4.2764,4.2742,4.2726,4.2733,4.2718,4.2696,4.2696,4.2683,4.2682,4.2697,4.2696,4.2699,4.2702,4.2741,4.2749,4.2755,0,0,0,0,0,0,4.282,4.2793,4.2779,4.2791,4.2782,4.2759,4.2768,4.275,4.2744,4.2741,4.2712,4.2708,4.2719,4.2708,4.2695,4.2717,4.2693,4.2695,4.2723,4.273,4.2736,4.2738,4.266,0,0,0,0,0,4.283,4.2831,4.2808,4.2821,4.2817,4.2794,4.2792,4.2776,4.2764,4.276,4.2744,4.2734,4.2731,4.273,4.2726,4.2742,4.2738,4.2752,4.2758,4.2762,4.2765,4.2774,4.278,4.2712,4.2712,4.2712,0,0,4.2852,4.2838,4.284,4.2829,4.282,4.2822,4.279,4.2793,4.2795,4.276,4.2766,4.2754,4.274,4.2752,4.2757,4.2744,4.2783,4.2766,4.277,4.277,4.2777,4.2784,4.279,4.2714,4.2713,4.2713,0,0,4.2893,4.2882,4.2893,4.2884,4.287,4.2855,4.2857,4.2838,4.2829,4.2835,4.2809,4.281,4.2806,4.2797,4.2793,4.2832,4.2812,4.2831,4.2861,4.287,4.2875,4.288,4.2895,4.2901,4.2834,4.2834,4.2834,0,4.2922,4.2924,4.29,4.2905,4.2901,4.2871,4.2881,4.2874,4.2859,4.2858,4.2844,4.2839,4.2827,4.2837,4.2847,4.2844,4.2846,4.2834,4.2877,4.2881,4.2885,4.2899,4.2905,4.2837,4.2836,4.2836,4.2836,0,4.2961,4.2962,4.2972,4.296,4.2957,4.2965,4.2943,4.2943,4.2927,4.2913,4.2919,4.2905,4.2898,4.2899,4.2883,4.2907,4.29,4.2882,4.2857,4.2895,4.2907,4.2912,4.284,4.2839,4.2839,4.2838,0,0,4.3027,4.3002,4.3006,4.3,4.2983,4.2984,4.2991,4.2985,4.2986,4.2977,4.2983,4.2981,4.2964,4.2959,4.2942,4.295,4.2983,4.293,4.293,4.2941,4.301,4.3025,4.3031,4.297,4.2971,4.2972,4.3012,0,4.3065,4.3075,4.3054,4.3069,4.3071,4.3043,4.3049,4.3039,4.3026,4.3026,4.3012,4.3011,4.2989,4.2986,4.2992,4.2978,4.2997,4.2974,4.2975,4.2975,4.298,4.3038,4.3052,4.3091,4.3016,4.3017,4.3018,0,4.311,4.3105,4.3121,4.3104,4.3104,4.311,4.3103,4.3103,4.3092,4.3082,4.3077,4.3058,4.3063,4.304,4.3047,4.3033,4.3032,4.3025,4.3026,4.3025,4.2999,4.304,4.3102,4.3109,4.3025,4.3024,4.3024,0,4.3158,4.3155,4.3164,4.316,4.314,4.3145,4.3137,4.3125,4.3123,4.3118,4.3116,4.3111,4.3108,4.3105,4.3085,4.3069,4.3095,4.307,4.3088,4.3089,4.3095,4.3095,4.316,4.3093,4.3093,4.3093,4.3093,0,4.3204,4.3215,4.3185,4.3191,4.3203,4.3179,4.3191,4.318,4.317,4.3173,4.3148,4.3152,4.3124,4.3125,4.3109,4.3119,4.3118,4.311,4.3106,4.3113,4.3114,4.3113,4.311,4.3095,4.3094,4.3094,4.3094,0,4.3259,4.324,4.3248,4.3229,4.3225,4.3235,4.3218,4.3223,4.3209,4.3214,4.3214,4.3192,4.3192,4.3171,4.3167,4.3156,4.3173,4.3163,4.3177,4.3174,4.3194,4.3193,4.3261,4.3269,4.3197,4.3197,4.3198,0,4.329,4.3297,4.328,4.3281,4.3274,4.3275,4.3274,4.325,4.325,4.3238,4.3245,4.3243,4.324,4.3241,4.3225,4.3222,4.3212,4.3236,4.3211,4.3219,4.3214,4.3214,4.3215,4.3242,4.3242,4.3243,4.3244,0,4.3346,4.3336,4.3335,4.3331,4.333,4.3325,4.3319,4.3321,4.3296,4.3296,4.3296,4.3294,4.329,4.3289,4.3283,4.3274,4.3256,4.3252,4.3256,4.3264,4.3272,4.3269,4.3192,4.325,4.325,4.3249,4.3249,4.3249,4.3391,4.3397,4.3386,4.3385,4.3378,4.3374,4.3378,4.3365,4.3364,4.3359,4.3346,4.3348,4.3338,4.3328,4.3321,4.3323,4.3311,4.3317,4.3319,4.3321,4.3325,4.3271,4.3322,4.3322,4.3321,4.3321,4.3321,0,4.3447,4.3438,4.3438,4.3431,4.3431,4.3413,4.3406,4.3407,4.341,4.3402,4.34,4.34,4.3399,4.3383,4.338,4.3385,4.3376,4.3385,4.3385,4.3384,4.3336,4.3333,4.3393,4.3393,4.3392,4.3392,4.3392,4.3392,4.3476,4.3486,4.3475,4.3482,4.3473,4.3476,4.3474,4.3469,4.3463,4.3465,4.3464,4.3454,4.3443,4.3439,4.3438,4.3433,4.3434,4.3446,4.3438,4.3394,4.3387,4.338,4.3378,4.3446,4.3446,4.3486,4.3487,4.3487]}]]